Location: Unspecified
(0.0000°N, 0.0000°E)
Time: 06:52:58
(UTC+00:00)

RS-8 - Pass Details

Date: 13 October 2022
Orbit: 1579 x 1660 km, 83.0° (Epoch: 09 December)

Event Time Altitude Azimuth Distance (km) Brightness Sun altitude
Rises 21:24:02 0° 220° (SW) 4,767 11.0 -53.7°
Reaches altitude 10° 21:28:43 10° 241° (WSW) 3,783 10.4 -54.8°
Maximum altitude 21:33:22 15° 273° (W) 3,395 10.1 -56.0°
Drops below altitude 10° 21:38:04 10° 304° (NW) 3,795 10.2 -57.1°
Sets 21:42:52 0° 326° (NW) 4,790 10.7 -58.2°
